User: anonymous   Login
Location: Caltech
(34.1382°N, 118.1253°W)
Time: 18:55:02
(UTC-07:00)
Language:

PAYLOAD A - Orbit

View from above orbital plane
View from above orbital plane
View from above satellite
View from above satellite

Ground track
Ground track

The orbit data is extracted from the following two-line orbital elements,

1 27840U 03031A   16119.64030794 -.00000007  00000-0  11464-4 0  9997
2 27840  98.1975 129.3074 0097036 289.0912  69.9788 14.38852400673697
Epoch (UTC): 28 April 2016 15:22:02
Eccentricity: 0.0097036
inclination: 98.1975°
perigee height: 693 km
apogee height: 831 km
right ascension of ascending node: 129.3074°
argument of perigee: 289.0912°
revolutions per day: 14.38852400
mean anomaly at epoch: 69.9788°
orbit number at epoch: 67369

The dashed part of the orbit path shows where the satellite is in the earth's shadow,  

DLR